Year,Month,Day,Hour,Minute,Value (Times are PST for windspeed in km/hr)
2015,12,06,00,00,6.40
2015,12,06,00,01,4.60
2015,12,06,00,02,3.00
2015,12,06,00,03,3.40
2015,12,06,00,04,5.70
2015,12,06,00,05,9.30
2015,12,06,00,06,8.30
2015,12,06,00,07,4.10
2015,12,06,00,08,6.80
2015,12,06,00,09,2.30
2015,12,06,00,10,5.70
2015,12,06,00,11,5.70
2015,12,06,00,12,4.70
2015,12,06,00,13,4.10
2015,12,06,00,14,9.30
2015,12,06,00,15,10.10
2015,12,06,00,16,5.30
2015,12,06,00,17,2.30
2015,12,06,00,18,7.00
2015,12,06,00,19,5.90
2015,12,06,00,20,3.50
2015,12,06,00,21,6.30
2015,12,06,00,22,2.70
2015,12,06,00,23,16.00
2015,12,06,00,24,10.60
2015,12,06,00,25,5.60
2015,12,06,00,26,6.10
2015,12,06,00,27,4.40
2015,12,06,00,28,9.00
2015,12,06,00,29,4.20
2015,12,06,00,30,3.00
2015,12,06,00,31,6.70
2015,12,06,00,32,5.10
2015,12,06,00,33,9.40
2015,12,06,00,34,15.80
2015,12,06,00,35,3.00
2015,12,06,00,36,6.80
2015,12,06,00,37,3.50
2015,12,06,00,38,4.80
2015,12,06,00,39,7.40
2015,12,06,00,40,7.70
2015,12,06,00,41,10.50
2015,12,06,00,42,6.60
2015,12,06,00,43,7.70
2015,12,06,00,44,6.10
2015,12,06,00,45,4.70
2015,12,06,00,46,7.10
2015,12,06,00,47,4.10
2015,12,06,00,48,4.60
2015,12,06,00,49,11.30
2015,12,06,00,50,7.30
2015,12,06,00,51,5.20
2015,12,06,00,52,4.30
2015,12,06,00,53,7.20
2015,12,06,00,54,14.00
2015,12,06,00,55,12.10
2015,12,06,00,56,12.50
2015,12,06,00,57,11.00
2015,12,06,00,58,6.40
2015,12,06,00,59,3.70
2015,12,06,01,00,6.60
2015,12,06,01,01,5.10
2015,12,06,01,02,2.70
2015,12,06,01,03,7.30
2015,12,06,01,04,4.10
2015,12,06,01,05,6.00
2015,12,06,01,06,8.70
2015,12,06,01,07,3.90
2015,12,06,01,08,3.60
2015,12,06,01,09,3.50
2015,12,06,01,10,5.40
2015,12,06,01,11,3.90
2015,12,06,01,12,4.20
2015,12,06,01,13,7.10
2015,12,06,01,14,2.80
2015,12,06,01,15,3.60
2015,12,06,01,16,6.80
2015,12,06,01,17,5.80
2015,12,06,01,18,3.10
2015,12,06,01,19,2.80
2015,12,06,01,20,2.80
2015,12,06,01,21,1.60
2015,12,06,01,22,0.40
2015,12,06,01,23,0.00
2015,12,06,01,24,1.40
2015,12,06,01,25,1.60
2015,12,06,01,26,3.20
2015,12,06,01,27,7.10
2015,12,06,01,28,4.20
2015,12,06,01,29,1.00
2015,12,06,01,30,1.60
2015,12,06,01,31,3.70
2015,12,06,01,32,3.20
2015,12,06,01,33,3.30
2015,12,06,01,34,6.40
2015,12,06,01,35,6.20
2015,12,06,01,36,3.30
2015,12,06,01,37,1.20
2015,12,06,01,38,4.30
2015,12,06,01,39,3.30
2015,12,06,01,40,1.00
2015,12,06,01,41,3.70
2015,12,06,01,42,3.70
2015,12,06,01,43,2.90
2015,12,06,01,44,2.60
2015,12,06,01,45,3.00
2015,12,06,01,46,1.20
2015,12,06,01,47,1.20
2015,12,06,01,48,1.50
2015,12,06,01,49,4.00
2015,12,06,01,50,4.50
2015,12,06,01,51,3.90
2015,12,06,01,52,2.80
2015,12,06,01,53,2.00
2015,12,06,01,54,4.80
2015,12,06,01,55,5.30
2015,12,06,01,56,3.20
2015,12,06,01,57,1.40
2015,12,06,01,58,0.40
2015,12,06,01,59,3.30
2015,12,06,02,00,0.80
2015,12,06,02,01,1.40
2015,12,06,02,02,9.80
2015,12,06,02,03,8.40
2015,12,06,02,04,2.20
2015,12,06,02,05,0.70
2015,12,06,02,06,2.50
2015,12,06,02,07,3.60
2015,12,06,02,08,0.40
2015,12,06,02,09,0.60
2015,12,06,02,10,0.90
2015,12,06,02,11,0.00
2015,12,06,02,12,0.00
2015,12,06,02,13,1.40
2015,12,06,02,14,0.10
2015,12,06,02,15,1.00
2015,12,06,02,16,3.70
2015,12,06,02,17,0.80
2015,12,06,02,18,3.50
2015,12,06,02,19,1.80
2015,12,06,02,20,1.70
2015,12,06,02,21,1.30
2015,12,06,02,22,4.60
2015,12,06,02,23,2.10
2015,12,06,02,24,4.20
2015,12,06,02,25,4.00
2015,12,06,02,26,2.00
2015,12,06,02,27,0.80
2015,12,06,02,28,1.00
2015,12,06,02,29,2.30
2015,12,06,02,30,1.70
2015,12,06,02,31,0.70
2015,12,06,02,32,0.30
2015,12,06,02,33,0.20
2015,12,06,02,34,1.00
2015,12,06,02,35,2.50
2015,12,06,02,36,0.80
2015,12,06,02,37,1.00
2015,12,06,02,38,0.70
2015,12,06,02,39,4.40
2015,12,06,02,40,1.20
2015,12,06,02,41,0.10
2015,12,06,02,42,1.00
2015,12,06,02,43,4.20
2015,12,06,02,44,2.80
2015,12,06,02,45,4.40
2015,12,06,02,46,6.10
2015,12,06,02,47,5.10
2015,12,06,02,48,5.70
2015,12,06,02,49,2.10
2015,12,06,02,50,5.40
2015,12,06,02,51,3.30
2015,12,06,02,52,2.20
2015,12,06,02,53,1.80
2015,12,06,02,54,2.50
2015,12,06,02,55,2.80
2015,12,06,02,56,4.60
2015,12,06,02,57,4.40
2015,12,06,02,58,1.60
2015,12,06,02,59,1.50
2015,12,06,03,00,2.40
2015,12,06,03,01,0.80
2015,12,06,03,02,2.10
2015,12,06,03,03,2.60
2015,12,06,03,04,4.90
2015,12,06,03,05,1.10
2015,12,06,03,06,0.20
2015,12,06,03,07,0.70
2015,12,06,03,08,0.10
2015,12,06,03,09,0.00
2015,12,06,03,10,0.00
2015,12,06,03,11,0.10
2015,12,06,03,12,0.30
2015,12,06,03,13,0.00
2015,12,06,03,14,0.00
2015,12,06,03,15,0.00
2015,12,06,03,16,0.00
2015,12,06,03,17,0.00
2015,12,06,03,18,0.40
2015,12,06,03,19,0.50
2015,12,06,03,20,1.90
2015,12,06,03,21,0.80
2015,12,06,03,22,0.10
2015,12,06,03,23,0.00
2015,12,06,03,24,0.00
2015,12,06,03,25,0.00
2015,12,06,03,26,0.00
2015,12,06,03,27,0.00
2015,12,06,03,28,0.40
2015,12,06,03,29,2.10
2015,12,06,03,30,0.20
2015,12,06,03,31,0.00
2015,12,06,03,32,0.00
2015,12,06,03,33,0.00
2015,12,06,03,34,0.90
2015,12,06,03,35,0.50
2015,12,06,03,36,0.10
2015,12,06,03,37,0.00
2015,12,06,03,38,0.00
2015,12,06,03,39,0.80
2015,12,06,03,40,0.20
2015,12,06,03,41,0.00
2015,12,06,03,42,1.00
2015,12,06,03,43,1.80
2015,12,06,03,44,0.10
2015,12,06,03,45,1.20
2015,12,06,03,46,2.90
2015,12,06,03,47,0.40
2015,12,06,03,48,1.60
2015,12,06,03,49,0.50
2015,12,06,03,50,0.20
2015,12,06,03,51,0.00
2015,12,06,03,52,0.00
2015,12,06,03,53,0.00
2015,12,06,03,54,0.00
2015,12,06,03,55,0.00
2015,12,06,03,56,0.00
2015,12,06,03,57,0.00
2015,12,06,03,58,0.50
2015,12,06,03,59,0.30
2015,12,06,04,00,0.10
2015,12,06,04,01,0.10
2015,12,06,04,02,0.10
2015,12,06,04,03,0.10
2015,12,06,04,04,0.10
2015,12,06,04,05,0.60
2015,12,06,04,06,1.90
2015,12,06,04,07,1.00
2015,12,06,04,08,0.10
2015,12,06,04,09,0.10
2015,12,06,04,10,0.20
2015,12,06,04,11,0.10
2015,12,06,04,12,0.70
2015,12,06,04,13,0.00
2015,12,06,04,14,0.00
2015,12,06,04,15,0.10
2015,12,06,04,16,0.20
2015,12,06,04,17,0.00
2015,12,06,04,18,0.00
2015,12,06,04,19,0.50
2015,12,06,04,20,0.50
2015,12,06,04,21,0.00
2015,12,06,04,22,0.10
2015,12,06,04,23,0.00
2015,12,06,04,24,0.00
2015,12,06,04,25,0.60
2015,12,06,04,26,0.10
2015,12,06,04,27,0.10
2015,12,06,04,28,0.10
2015,12,06,04,29,0.30
2015,12,06,04,30,0.40
2015,12,06,04,31,0.70
2015,12,06,04,32,0.40
2015,12,06,04,33,0.20
2015,12,06,04,34,0.40
2015,12,06,04,35,0.10
2015,12,06,04,36,0.10
2015,12,06,04,37,0.00
2015,12,06,04,38,0.00
2015,12,06,04,39,0.00
2015,12,06,04,40,0.00
2015,12,06,04,41,0.00
2015,12,06,04,42,0.60
2015,12,06,04,43,1.90
2015,12,06,04,44,0.30
2015,12,06,04,45,0.00
2015,12,06,04,46,0.00
2015,12,06,04,47,0.00
2015,12,06,04,48,0.00
2015,12,06,04,49,0.00
2015,12,06,04,50,0.00
2015,12,06,04,51,0.80
2015,12,06,04,52,0.30
2015,12,06,04,53,0.00
2015,12,06,04,54,0.00
2015,12,06,04,55,0.00
2015,12,06,04,56,0.00
2015,12,06,04,57,0.60
2015,12,06,04,58,0.10
2015,12,06,04,59,0.20
2015,12,06,05,00,0.60
2015,12,06,05,01,0.20
2015,12,06,05,02,0.80
2015,12,06,05,03,0.80
2015,12,06,05,04,0.60
2015,12,06,05,05,0.40
2015,12,06,05,06,0.70
2015,12,06,05,07,1.40
2015,12,06,05,08,0.10
2015,12,06,05,09,0.20
2015,12,06,05,10,0.50
2015,12,06,05,11,0.70
2015,12,06,05,12,1.60
2015,12,06,05,13,0.20
2015,12,06,05,14,0.50
2015,12,06,05,15,1.90
2015,12,06,05,16,1.80
2015,12,06,05,17,0.70
2015,12,06,05,18,0.00
2015,12,06,05,19,0.10
2015,12,06,05,20,0.30
2015,12,06,05,21,0.30
2015,12,06,05,22,0.10
2015,12,06,05,23,0.10
2015,12,06,05,24,1.30
2015,12,06,05,25,0.30
2015,12,06,05,26,0.00
2015,12,06,05,27,1.60
2015,12,06,05,28,2.30
2015,12,06,05,29,0.10
2015,12,06,05,30,2.60
2015,12,06,05,31,8.50
2015,12,06,05,32,1.20
2015,12,06,05,33,0.20
2015,12,06,05,34,0.10
2015,12,06,05,35,0.00
2015,12,06,05,36,2.20
2015,12,06,05,37,3.60
2015,12,06,05,38,2.40
2015,12,06,05,39,1.60
2015,12,06,05,40,0.90
2015,12,06,05,41,0.70
2015,12,06,05,42,1.90
2015,12,06,05,43,2.40
2015,12,06,05,44,2.80
2015,12,06,05,45,4.50
2015,12,06,05,46,1.60
2015,12,06,05,47,2.30
2015,12,06,05,48,0.70
2015,12,06,05,49,2.50
2015,12,06,05,50,0.50
2015,12,06,05,51,3.10
2015,12,06,05,52,2.40
2015,12,06,05,53,2.30
2015,12,06,05,54,5.40
2015,12,06,05,55,7.30
2015,12,06,05,56,3.80
2015,12,06,05,57,6.40
2015,12,06,05,58,4.80
2015,12,06,05,59,3.30
2015,12,06,06,00,6.40
2015,12,06,06,01,6.30
2015,12,06,06,02,7.90
2015,12,06,06,03,5.80
2015,12,06,06,04,5.50
2015,12,06,06,05,9.30
2015,12,06,06,06,9.20
2015,12,06,06,07,5.10
2015,12,06,06,08,1.90
2015,12,06,06,09,7.00
2015,12,06,06,10,7.50
2015,12,06,06,11,5.00
2015,12,06,06,12,3.00
2015,12,06,06,13,5.20
2015,12,06,06,14,5.90
2015,12,06,06,15,8.20
2015,12,06,06,16,2.40
2015,12,06,06,17,10.10
2015,12,06,06,18,13.20
2015,12,06,06,19,3.70
2015,12,06,06,20,2.60
2015,12,06,06,21,5.80
2015,12,06,06,22,7.50
2015,12,06,06,23,5.00
2015,12,06,06,24,9.00
2015,12,06,06,25,8.70
2015,12,06,06,26,6.50
2015,12,06,06,27,10.40
2015,12,06,06,28,12.40
2015,12,06,06,29,8.40
2015,12,06,06,30,10.10
2015,12,06,06,31,6.90
2015,12,06,06,32,6.60
2015,12,06,06,33,7.10
2015,12,06,06,34,7.50
2015,12,06,06,35,5.70
2015,12,06,06,36,12.60
2015,12,06,06,37,11.70
2015,12,06,06,38,7.20
2015,12,06,06,39,7.10
2015,12,06,06,40,16.70
2015,12,06,06,41,7.80
2015,12,06,06,42,9.10
2015,12,06,06,43,8.90
2015,12,06,06,44,9.70
2015,12,06,06,45,6.00
2015,12,06,06,46,5.50
2015,12,06,06,47,3.00
2015,12,06,06,48,2.60
2015,12,06,06,49,8.50
2015,12,06,06,50,3.50
2015,12,06,06,51,8.10
2015,12,06,06,52,7.30
2015,12,06,06,53,3.90
2015,12,06,06,54,3.10
2015,12,06,06,55,11.40
2015,12,06,06,56,9.40
2015,12,06,06,57,6.70
2015,12,06,06,58,6.40
2015,12,06,06,59,9.30
2015,12,06,07,00,7.60
2015,12,06,07,01,10.30
2015,12,06,07,02,6.20
2015,12,06,07,03,9.10
2015,12,06,07,04,8.70
2015,12,06,07,05,9.20
2015,12,06,07,06,4.60
2015,12,06,07,07,7.30
2015,12,06,07,08,7.40
2015,12,06,07,09,11.10
2015,12,06,07,10,9.50
2015,12,06,07,11,11.10
2015,12,06,07,12,7.70
2015,12,06,07,13,9.10
2015,12,06,07,14,11.50
2015,12,06,07,15,6.00
2015,12,06,07,16,5.80
2015,12,06,07,17,4.20
2015,12,06,07,18,13.10
2015,12,06,07,19,9.40
2015,12,06,07,20,9.50
2015,12,06,07,21,14.10
2015,12,06,07,22,8.20
2015,12,06,07,23,11.70
2015,12,06,07,24,6.70
2015,12,06,07,25,12.80
2015,12,06,07,26,6.00
2015,12,06,07,27,5.10
2015,12,06,07,28,10.90
2015,12,06,07,29,5.10
2015,12,06,07,30,4.50
2015,12,06,07,31,6.80
2015,12,06,07,32,8.20
2015,12,06,07,33,5.00
2015,12,06,07,34,8.00
2015,12,06,07,35,7.40
2015,12,06,07,36,7.60
2015,12,06,07,37,5.20
2015,12,06,07,38,5.30
2015,12,06,07,39,11.90
2015,12,06,07,40,5.30
2015,12,06,07,41,12.10
2015,12,06,07,42,4.30
2015,12,06,07,43,11.00
2015,12,06,07,44,10.80
2015,12,06,07,45,6.00
2015,12,06,07,46,8.00
2015,12,06,07,47,13.70
2015,12,06,07,48,18.10
2015,12,06,07,49,6.80
2015,12,06,07,50,5.60
2015,12,06,07,51,5.90
2015,12,06,07,52,3.10
2015,12,06,07,53,5.00
2015,12,06,07,54,11.00
2015,12,06,07,55,4.70
2015,12,06,07,56,7.80
2015,12,06,07,57,11.70
2015,12,06,07,58,7.10
2015,12,06,07,59,12.40
2015,12,06,08,00,14.90
2015,12,06,08,01,10.40
2015,12,06,08,02,5.40
2015,12,06,08,03,14.90
2015,12,06,08,04,6.80
2015,12,06,08,05,8.20
2015,12,06,08,06,9.10
2015,12,06,08,07,10.00
2015,12,06,08,08,11.10
2015,12,06,08,09,13.60
2015,12,06,08,10,6.10
2015,12,06,08,11,11.80
2015,12,06,08,12,7.30
2015,12,06,08,13,7.60
2015,12,06,08,14,6.30
2015,12,06,08,15,8.10
2015,12,06,08,16,14.90
2015,12,06,08,17,10.40
2015,12,06,08,18,6.70
2015,12,06,08,19,12.00
2015,12,06,08,20,7.40
2015,12,06,08,21,4.30
2015,12,06,08,22,5.60
2015,12,06,08,23,8.40
2015,12,06,08,24,7.10
2015,12,06,08,25,16.90
2015,12,06,08,26,6.60
2015,12,06,08,27,14.80
2015,12,06,08,28,11.70
2015,12,06,08,29,6.50
2015,12,06,08,30,10.40
2015,12,06,08,31,5.50
2015,12,06,08,32,8.10
2015,12,06,08,33,7.00
2015,12,06,08,34,7.00
2015,12,06,08,35,8.20
2015,12,06,08,36,4.20
2015,12,06,08,37,5.70
2015,12,06,08,38,7.50
2015,12,06,08,39,8.30
2015,12,06,08,40,3.30
2015,12,06,08,41,11.00
2015,12,06,08,42,11.80
2015,12,06,08,43,7.90
2015,12,06,08,44,5.90
2015,12,06,08,45,7.00
2015,12,06,08,46,9.10
2015,12,06,08,47,10.70
2015,12,06,08,48,6.40
2015,12,06,08,49,13.00
2015,12,06,08,50,9.80
2015,12,06,08,51,6.80
2015,12,06,08,52,11.80
2015,12,06,08,53,8.70
2015,12,06,08,54,9.20
2015,12,06,08,55,5.50
2015,12,06,08,56,8.40
2015,12,06,08,57,10.60
2015,12,06,08,58,20.70
2015,12,06,08,59,17.30
2015,12,06,09,00,13.70
2015,12,06,09,01,11.10
2015,12,06,09,02,8.20
2015,12,06,09,03,7.70
2015,12,06,09,04,11.70
2015,12,06,09,05,7.50
2015,12,06,09,06,9.30
2015,12,06,09,07,8.50
2015,12,06,09,08,5.10
2015,12,06,09,09,10.20
2015,12,06,09,10,8.70
2015,12,06,09,11,8.10
2015,12,06,09,12,8.60
2015,12,06,09,13,18.60
2015,12,06,09,14,13.80
2015,12,06,09,15,4.50
2015,12,06,09,16,12.40
2015,12,06,09,17,3.60
2015,12,06,09,18,10.50
2015,12,06,09,19,11.30
2015,12,06,09,20,11.20
2015,12,06,09,21,4.90
2015,12,06,09,22,7.50
2015,12,06,09,23,7.70
2015,12,06,09,24,13.70
2015,12,06,09,25,12.70
2015,12,06,09,26,8.20
2015,12,06,09,27,3.90
2015,12,06,09,28,14.20
2015,12,06,09,29,10.00
2015,12,06,09,30,8.20
2015,12,06,09,31,5.40
2015,12,06,09,32,10.00
2015,12,06,09,33,6.10
2015,12,06,09,34,11.50
2015,12,06,09,35,16.90
2015,12,06,09,36,19.90
2015,12,06,09,37,19.10
2015,12,06,09,38,15.40
2015,12,06,09,39,16.90
2015,12,06,09,40,4.80
2015,12,06,09,41,13.40
2015,12,06,09,42,8.40
2015,12,06,09,43,16.90
2015,12,06,09,44,8.10
2015,12,06,09,45,10.00
2015,12,06,09,46,10.60
2015,12,06,09,47,9.90
2015,12,06,09,48,12.00
2015,12,06,09,49,13.90
2015,12,06,09,50,7.90
2015,12,06,09,51,4.10
2015,12,06,09,52,8.80
2015,12,06,09,53,20.20
2015,12,06,09,54,10.50
2015,12,06,09,55,15.40
2015,12,06,09,56,6.70
2015,12,06,09,57,4.80
2015,12,06,09,58,11.00
2015,12,06,09,59,12.50
2015,12,06,10,00,13.00
2015,12,06,10,01,12.30
2015,12,06,10,02,13.90
2015,12,06,10,03,8.80
2015,12,06,10,04,5.10
2015,12,06,10,05,13.10
2015,12,06,10,06,12.90
2015,12,06,10,07,7.30
2015,12,06,10,08,12.60
2015,12,06,10,09,14.80
2015,12,06,10,10,11.20
2015,12,06,10,11,10.10
2015,12,06,10,12,11.20
2015,12,06,10,13,7.90
2015,12,06,10,14,11.20
2015,12,06,10,15,10.00
2015,12,06,10,16,11.70
2015,12,06,10,17,7.30
2015,12,06,10,18,11.50
2015,12,06,10,19,12.70
2015,12,06,10,20,7.80
2015,12,06,10,21,8.10
2015,12,06,10,22,13.40
2015,12,06,10,23,10.90
2015,12,06,10,24,9.20
2015,12,06,10,25,11.60
2015,12,06,10,26,12.20
2015,12,06,10,27,8.40
2015,12,06,10,28,16.40
2015,12,06,10,29,11.50
2015,12,06,10,30,5.10
2015,12,06,10,31,9.00
2015,12,06,10,32,8.90
2015,12,06,10,33,14.30
2015,12,06,10,34,11.50
2015,12,06,10,35,7.50
2015,12,06,10,36,22.20
2015,12,06,10,37,6.20
2015,12,06,10,38,12.90
2015,12,06,10,39,6.40
2015,12,06,10,40,9.50
2015,12,06,10,41,14.30
2015,12,06,10,42,10.60
2015,12,06,10,43,8.50
2015,12,06,10,44,9.60
2015,12,06,10,45,4.60
2015,12,06,10,46,9.20
2015,12,06,10,47,10.60
2015,12,06,10,48,4.90
2015,12,06,10,49,10.10
2015,12,06,10,50,10.40
2015,12,06,10,51,9.80
2015,12,06,10,52,7.80
2015,12,06,10,53,12.20
2015,12,06,10,54,9.20
2015,12,06,10,55,9.00
2015,12,06,10,56,12.00
2015,12,06,10,57,9.20
2015,12,06,10,58,19.60
2015,12,06,10,59,13.10
2015,12,06,11,00,12.80
2015,12,06,11,01,6.90
2015,12,06,11,02,14.20
2015,12,06,11,03,9.00
2015,12,06,11,04,9.60
2015,12,06,11,05,12.80
2015,12,06,11,06,6.60
2015,12,06,11,07,16.20
2015,12,06,11,08,12.30
2015,12,06,11,09,11.50
2015,12,06,11,10,10.10
2015,12,06,11,11,7.50
2015,12,06,11,12,11.30
2015,12,06,11,13,11.80
2015,12,06,11,14,16.60
2015,12,06,11,15,11.70
2015,12,06,11,16,9.90
2015,12,06,11,17,13.80
2015,12,06,11,18,18.20
2015,12,06,11,19,9.30
2015,12,06,11,20,7.00
2015,12,06,11,21,18.80
2015,12,06,11,22,13.50
2015,12,06,11,23,8.90
2015,12,06,11,24,15.10
2015,12,06,11,25,11.80
2015,12,06,11,26,13.10
2015,12,06,11,27,16.30
2015,12,06,11,28,17.60
2015,12,06,11,29,18.00
2015,12,06,11,30,9.70
2015,12,06,11,31,5.10
2015,12,06,11,32,5.80
2015,12,06,11,33,7.80
2015,12,06,11,34,8.20
2015,12,06,11,35,12.80
2015,12,06,11,36,14.20
2015,12,06,11,37,10.60
2015,12,06,11,38,14.20
2015,12,06,11,39,11.10
2015,12,06,11,40,22.70
2015,12,06,11,41,10.80
2015,12,06,11,42,8.50
2015,12,06,11,43,4.90
2015,12,06,11,44,9.50
2015,12,06,11,45,9.80
2015,12,06,11,46,12.30
2015,12,06,11,47,14.50
2015,12,06,11,48,13.30
2015,12,06,11,49,7.30
2015,12,06,11,50,7.90
2015,12,06,11,51,10.50
2015,12,06,11,52,10.70
2015,12,06,11,53,8.10
2015,12,06,11,54,18.30
2015,12,06,11,55,11.50
2015,12,06,11,56,15.20
2015,12,06,11,57,10.00
2015,12,06,11,58,8.20
2015,12,06,11,59,7.80
2015,12,06,12,00,7.10
2015,12,06,12,01,11.70
2015,12,06,12,02,9.40
2015,12,06,12,03,10.00
2015,12,06,12,04,15.30
2015,12,06,12,05,12.30
2015,12,06,12,06,11.80
2015,12,06,12,07,10.40
2015,12,06,12,08,10.00
2015,12,06,12,09,12.30
2015,12,06,12,10,18.50
2015,12,06,12,11,7.20
2015,12,06,12,12,16.20
2015,12,06,12,13,10.00
2015,12,06,12,14,4.90
2015,12,06,12,15,24.90
2015,12,06,12,16,9.90
2015,12,06,12,17,6.60
2015,12,06,12,18,7.90
2015,12,06,12,19,9.90
2015,12,06,12,20,16.10
2015,12,06,12,21,12.50
2015,12,06,12,22,12.70
2015,12,06,12,23,9.70
2015,12,06,12,24,14.40
2015,12,06,12,25,17.20
2015,12,06,12,26,12.20
2015,12,06,12,27,11.40
2015,12,06,12,28,16.30
2015,12,06,12,29,9.80
2015,12,06,12,30,8.50
2015,12,06,12,31,7.60
2015,12,06,12,32,5.90
2015,12,06,12,33,9.70
2015,12,06,12,34,13.70
2015,12,06,12,35,6.40
2015,12,06,12,36,8.60
2015,12,06,12,37,8.20
2015,12,06,12,38,5.90
2015,12,06,12,39,9.30
2015,12,06,12,40,6.00
2015,12,06,12,41,13.30
2015,12,06,12,42,19.60
2015,12,06,12,43,7.10
2015,12,06,12,44,16.80
2015,12,06,12,45,8.30
2015,12,06,12,46,8.00
2015,12,06,12,47,9.30
2015,12,06,12,48,9.10
2015,12,06,12,49,9.70
2015,12,06,12,50,8.80
2015,12,06,12,51,12.20
2015,12,06,12,52,14.40
2015,12,06,12,53,16.20
2015,12,06,12,54,10.10
2015,12,06,12,55,15.60
2015,12,06,12,56,8.60
2015,12,06,12,57,9.50
2015,12,06,12,58,14.80
2015,12,06,12,59,9.70
2015,12,06,13,00,4.80
2015,12,06,13,01,8.10
2015,12,06,13,02,8.20
2015,12,06,13,03,13.90
2015,12,06,13,04,11.30
2015,12,06,13,05,12.20
2015,12,06,13,06,13.70
2015,12,06,13,07,7.40
2015,12,06,13,08,15.70
2015,12,06,13,09,8.10
2015,12,06,13,10,8.70
2015,12,06,13,11,5.00
2015,12,06,13,12,6.10
2015,12,06,13,13,6.00
2015,12,06,13,14,9.60
2015,12,06,13,15,13.80
2015,12,06,13,16,11.60
2015,12,06,13,17,10.40
2015,12,06,13,18,8.50
2015,12,06,13,19,6.80
2015,12,06,13,20,7.50
2015,12,06,13,21,14.70
2015,12,06,13,22,11.20
2015,12,06,13,23,7.40
2015,12,06,13,24,12.60
2015,12,06,13,25,7.80
2015,12,06,13,26,10.80
2015,12,06,13,27,15.40
2015,12,06,13,28,3.80
2015,12,06,13,29,12.60
2015,12,06,13,30,11.50
2015,12,06,13,31,4.70
2015,12,06,13,32,14.90
2015,12,06,13,33,14.40
2015,12,06,13,34,10.60
2015,12,06,13,35,12.60
2015,12,06,13,36,11.90
2015,12,06,13,37,14.90
2015,12,06,13,38,8.20
2015,12,06,13,39,6.90
2015,12,06,13,40,21.20
2015,12,06,13,41,10.30
2015,12,06,13,42,12.60
2015,12,06,13,43,12.10
2015,12,06,13,44,16.30
2015,12,06,13,45,10.40
2015,12,06,13,46,12.90
2015,12,06,13,47,7.60
2015,12,06,13,48,13.80
2015,12,06,13,49,9.50
2015,12,06,13,50,10.70
2015,12,06,13,51,15.80
2015,12,06,13,52,9.10
2015,12,06,13,53,9.70
2015,12,06,13,54,14.70
2015,12,06,13,55,12.50
2015,12,06,13,56,16.90
2015,12,06,13,57,13.00
2015,12,06,13,58,13.60
2015,12,06,13,59,8.70
2015,12,06,14,00,8.90
2015,12,06,14,01,5.90
2015,12,06,14,02,8.30
2015,12,06,14,03,5.90
2015,12,06,14,04,7.50
2015,12,06,14,05,12.80
2015,12,06,14,06,5.90
2015,12,06,14,07,15.90
2015,12,06,14,08,12.70
2015,12,06,14,09,7.80
2015,12,06,14,10,9.90
2015,12,06,14,11,11.30
2015,12,06,14,12,11.00
2015,12,06,14,13,7.30
2015,12,06,14,14,7.00
2015,12,06,14,15,14.40
2015,12,06,14,16,7.70
2015,12,06,14,17,12.10
2015,12,06,14,18,11.10
2015,12,06,14,19,10.80
2015,12,06,14,20,13.30
2015,12,06,14,21,17.30
2015,12,06,14,22,14.40
2015,12,06,14,23,12.90
2015,12,06,14,24,7.80
2015,12,06,14,25,10.60
2015,12,06,14,26,11.30
2015,12,06,14,27,10.90
2015,12,06,14,28,13.40
2015,12,06,14,29,9.10
2015,12,06,14,30,19.90
2015,12,06,14,31,13.90
2015,12,06,14,32,8.40
2015,12,06,14,33,8.40
2015,12,06,14,34,6.10
2015,12,06,14,35,7.90
2015,12,06,14,36,8.60
2015,12,06,14,37,8.00
2015,12,06,14,38,18.90
2015,12,06,14,39,14.90
2015,12,06,14,40,10.50
2015,12,06,14,41,12.30
2015,12,06,14,42,10.00
2015,12,06,14,43,13.10
2015,12,06,14,44,14.10
2015,12,06,14,45,12.00
2015,12,06,14,46,12.50
2015,12,06,14,47,8.20
2015,12,06,14,48,17.40
2015,12,06,14,49,17.10
2015,12,06,14,50,13.60
2015,12,06,14,51,15.00
2015,12,06,14,52,21.00
2015,12,06,14,53,18.50
2015,12,06,14,54,16.70
2015,12,06,14,55,12.40
2015,12,06,14,56,11.20
2015,12,06,14,57,10.40
2015,12,06,14,58,23.90
2015,12,06,14,59,11.70
2015,12,06,15,00,16.70
2015,12,06,15,01,11.40
2015,12,06,15,02,12.50
2015,12,06,15,03,13.10
2015,12,06,15,04,14.80
2015,12,06,15,05,16.90
2015,12,06,15,06,17.10
2015,12,06,15,07,11.60
2015,12,06,15,08,16.00
2015,12,06,15,09,9.70
2015,12,06,15,10,12.40
2015,12,06,15,11,9.50
2015,12,06,15,12,13.60
2015,12,06,15,13,14.80
2015,12,06,15,14,8.80
2015,12,06,15,15,19.50
2015,12,06,15,16,16.20
2015,12,06,15,17,15.90
2015,12,06,15,18,7.70
2015,12,06,15,19,21.10
2015,12,06,15,20,24.10
2015,12,06,15,21,13.50
2015,12,06,15,22,14.00
2015,12,06,15,23,19.80
2015,12,06,15,24,22.60
2015,12,06,15,25,13.70
2015,12,06,15,26,23.70
2015,12,06,15,27,16.60
2015,12,06,15,28,14.50
2015,12,06,15,29,14.90
2015,12,06,15,30,23.10
2015,12,06,15,31,17.80
2015,12,06,15,32,12.40
2015,12,06,15,33,17.10
2015,12,06,15,34,13.70
2015,12,06,15,35,10.70
2015,12,06,15,36,15.60
2015,12,06,15,37,16.80
2015,12,06,15,38,8.00
2015,12,06,15,39,8.00
2015,12,06,15,40,7.70
2015,12,06,15,41,12.20
2015,12,06,15,42,17.10
2015,12,06,15,43,19.40
2015,12,06,15,44,8.90
2015,12,06,15,45,13.30
2015,12,06,15,46,10.60
2015,12,06,15,47,15.00
2015,12,06,15,48,10.80
2015,12,06,15,49,14.50
2015,12,06,15,50,20.10
2015,12,06,15,51,19.10
2015,12,06,15,52,11.00
2015,12,06,15,53,10.70
2015,12,06,15,54,13.00
2015,12,06,15,55,7.40
2015,12,06,15,56,12.80
2015,12,06,15,57,15.90
2015,12,06,15,58,14.50
2015,12,06,15,59,21.00
2015,12,06,16,00,9.50
2015,12,06,16,01,19.40
2015,12,06,16,02,11.10
2015,12,06,16,03,22.30
2015,12,06,16,04,10.30
2015,12,06,16,05,14.50
2015,12,06,16,06,19.10
2015,12,06,16,07,12.40
2015,12,06,16,08,10.40
2015,12,06,16,09,18.20
2015,12,06,16,10,12.20
2015,12,06,16,11,10.30
2015,12,06,16,12,13.10
2015,12,06,16,13,18.00
2015,12,06,16,14,10.70
2015,12,06,16,15,10.80
2015,12,06,16,16,7.50
2015,12,06,16,17,20.00
2015,12,06,16,18,12.90
2015,12,06,16,19,13.60
2015,12,06,16,20,17.10
2015,12,06,16,21,13.50
2015,12,06,16,22,15.80
2015,12,06,16,23,15.60
2015,12,06,16,24,10.50
2015,12,06,16,25,11.10
2015,12,06,16,26,8.80
2015,12,06,16,27,7.40
2015,12,06,16,28,12.40
2015,12,06,16,29,10.80
2015,12,06,16,30,5.10
2015,12,06,16,31,12.90
2015,12,06,16,32,9.60
2015,12,06,16,33,17.20
2015,12,06,16,34,14.00
2015,12,06,16,35,9.90
2015,12,06,16,36,8.60
2015,12,06,16,37,12.40
2015,12,06,16,38,17.50
2015,12,06,16,39,12.70
2015,12,06,16,40,11.10
2015,12,06,16,41,17.10
2015,12,06,16,42,10.00
2015,12,06,16,43,11.40
2015,12,06,16,44,12.10
2015,12,06,16,45,17.90
2015,12,06,16,46,17.40
2015,12,06,16,47,9.10
2015,12,06,16,48,12.90
2015,12,06,16,49,15.00
2015,12,06,16,50,14.70
2015,12,06,16,51,16.90
2015,12,06,16,52,7.10
2015,12,06,16,53,21.80
2015,12,06,16,54,19.70
2015,12,06,16,55,8.70
2015,12,06,16,56,17.10
2015,12,06,16,57,17.90
2015,12,06,16,58,12.80
2015,12,06,16,59,13.00
2015,12,06,17,00,20.50
2015,12,06,17,01,19.90
2015,12,06,17,02,10.30
2015,12,06,17,03,14.40
2015,12,06,17,04,14.70
2015,12,06,17,05,17.00
2015,12,06,17,06,13.10
2015,12,06,17,07,13.80
2015,12,06,17,08,17.30
2015,12,06,17,09,25.40
2015,12,06,17,10,19.10
2015,12,06,17,11,14.50
2015,12,06,17,12,9.40
2015,12,06,17,13,11.90
2015,12,06,17,14,21.00
2015,12,06,17,15,11.70
2015,12,06,17,16,13.20
2015,12,06,17,17,18.00
2015,12,06,17,18,14.70
2015,12,06,17,19,21.60
2015,12,06,17,20,11.20
2015,12,06,17,21,15.40
2015,12,06,17,22,15.30
2015,12,06,17,23,21.40
2015,12,06,17,24,10.90
2015,12,06,17,25,15.00
2015,12,06,17,26,14.40
2015,12,06,17,27,19.50
2015,12,06,17,28,15.30
2015,12,06,17,29,8.00
2015,12,06,17,30,13.70
2015,12,06,17,31,18.40
2015,12,06,17,32,20.50
2015,12,06,17,33,12.80
2015,12,06,17,34,13.80
2015,12,06,17,35,17.70
2015,12,06,17,36,19.10
2015,12,06,17,37,14.10
2015,12,06,17,38,11.80
2015,12,06,17,39,10.60
2015,12,06,17,40,20.50
2015,12,06,17,41,7.10
2015,12,06,17,42,8.50
2015,12,06,17,43,19.70
2015,12,06,17,44,24.10
2015,12,06,17,45,10.80
2015,12,06,17,46,13.60
2015,12,06,17,47,15.30